Location: UMBC
(39.2555°N, 76.7093°W)
Time: 07:30:18
(UTC+02:00)

Amateur Radio Satellites - All Passes

Search period start: 16 April 2014 07:00
Search period end: 17 April 2014 07:00
Location: UMBC, 39.2555°N, 76.7093°W

Satellite Date Start Highest point End Downlink Frequencies (MHz)
Time Altitude Azimuth
SO-50 16 Apr 07:15:42 07:20:01 36° 52° (NE) 07:24:22 436.795 FM
Oscar 16 16 Apr 07:22:18 07:24:00 12° 90° (E) 07:25:42 437.025 USB, Beacon 2401.1428
PCSat 16 Apr 07:25:47 07:30:56 48° 112° (ESE) 07:36:08 145.825 MHz
OPAL 16 Apr 07:44:10 07:47:41 20° 62° (ENE) 07:51:14 ?
Uribyol 2 16 Apr 07:50:44 07:51:52 11° 89° (E) 07:52:59 436.500 FM
UOSAT-12 16 Apr 08:22:33 08:24:49 13° 40° (NE) 08:27:06 437.025 FM, 437.400 FM
Sapphire 16 Apr 08:23:35 08:28:55 59° 301° (WNW) 08:34:17 437.095 MHz 1200 baud AX-25 AFSK
AO-27 16 Apr 08:26:12 08:30:26 25° 95° (E) 08:34:38 436.795 MHz FM
ITAMSAT 1 16 Apr 08:37:41 08:42:17 32° 97° (E) 08:46:51 435.822 SSB
Oscar 19 16 Apr 08:51:06 08:56:20 84° 103° (ESE) 09:01:32 437.125 CW, 437.150 USB
SO-50 16 Apr 08:56:37 09:00:25 25° 248° (WSW) 09:04:15 436.795 FM
Oscar 16 16 Apr 08:58:41 09:03:54 78° 285° (WNW) 09:09:05 437.025 USB, Beacon 2401.1428
PCSat 16 Apr 09:10:10 09:14:35 25° 310° (NW) 09:19:02 145.825 MHz
KITSAT 1 16 Apr 09:14:32 09:21:57 41° 109° (ESE) 09:29:24 435.175 FM
OPAL 16 Apr 09:21:20 09:26:10 50° 258° (WSW) 09:31:05 ?
AO-Echo 16 Apr 09:24:26 09:29:16 74° 102° (ESE) 09:33:58 ?
Uribyol 2 16 Apr 09:26:44 09:31:55 82° 285° (WNW) 09:37:05 436.500 FM
Gurwin Techsat 1B 16 Apr 09:35:28 09:40:19 35° 97° (E) 09:45:08 435.225 FM
JAS-1B 16 Apr 09:40:57 09:42:56 12° 90° (E) 09:44:56 435.800 - 435.900 CW/SSB
UOSAT-12 16 Apr 10:00:58 10:05:43 85° 58° (ENE) 10:10:24 437.025 FM, 437.400 FM
AO-27 16 Apr 10:05:17 10:10:00 37° 291° (WNW) 10:14:43 436.795 MHz FM
Sapphire 16 Apr 10:12:25 10:13:31 11° 322° (NW) 10:14:36 437.095 MHz 1200 baud AX-25 AFSK
ITAMSAT 1 16 Apr 10:17:15 10:21:41 30° 293° (WNW) 10:26:06 435.822 SSB
TMSAT-1 16 Apr 10:25:53 10:31:12 76° 103° (ESE) 10:36:29 436.925 FM
Oscar 19 16 Apr 10:32:55 10:34:56 12° 300° (WNW) 10:36:57 437.125 CW, 437.150 USB
Oscar 10/S400 16 Apr 10:37:33 11:00:53 52° 145° (SE) 20:14:53 145.825 - 145.975 CW/USB, Beacon 145.810 USB
AO-Echo 16 Apr 11:05:36 11:07:22 12° 299° (WNW) 11:09:06 ?
AO-7 16 Apr 11:06:11 11:14:00 43° 100° (E) 11:21:48 29.400 - 29.500 MHz
KITSAT 1 16 Apr 11:09:32 11:17:15 46° 308° (NW) 11:25:01 435.175 FM
AO-40 16 Apr 11:10:26 16:37:42 38° 180° (S) 23:38:25 Beacon 2401.320
Gurwin Techsat 1B 16 Apr 11:15:41 11:20:08 28° 293° (WNW) 11:24:33 435.225 FM
Uosat F 16 Apr 11:17:51 11:22:53 88° 104° (ESE) 11:27:53 435.120 FM
JAS-1B 16 Apr 11:28:37 11:34:18 74° 286° (WNW) 11:40:05 435.800 - 435.900 CW/SSB
RS-15 16 Apr 11:49:40 11:55:35 16° 98° (E) 12:01:22 29.354 - 29.394 USB, Beacon 29.352 USB
STRAND 1 16 Apr 11:54:16 11:58:04 21° 65° (ENE) 12:01:51 ?
TMSAT-1 16 Apr 12:07:51 12:10:27 14° 299° (WNW) 12:13:02 436.925 FM
AO-7 16 Apr 12:59:05 13:06:42 42° 298° (WNW) 13:14:19 29.400 - 29.500 MHz
Uosat F 16 Apr 12:59:37 13:00:55 11° 301° (WNW) 13:02:13 435.120 FM
KITSAT 1 16 Apr 13:11:12 13:15:03 14° 334° (NNW) 13:18:54 435.175 FM
Hamsat 16 Apr 13:19:17 13:23:37 73° 101° (ESE) 13:27:58 145.90 MHz
STRAND 1 16 Apr 13:32:02 13:36:55 45° 261° (W) 13:41:50 ?
JAS-2 16 Apr 13:43:39 13:48:35 37° 99° (E) 13:53:54 435.800 - 435.900 CW/SSB, 435.910 FM
RS-15 16 Apr 13:54:43 14:06:04 77° 117° (ESE) 14:17:02 29.354 - 29.394 USB, Beacon 29.352 USB
MaSat-1 16 Apr 13:56:43 13:59:25 35° 63° (ENE) 14:02:33 437.345 MHz
SO-67 16 Apr 14:04:18 14:07:39 40° 98° (E) 14:10:57 435.3500 MHz FM
Hamsat 16 Apr 14:58:27 14:59:00 10° 297° (WNW) 14:59:33 145.90 MHz
JAS-2 16 Apr 15:29:13 15:33:34 26° 293° (WNW) 15:38:11 435.800 - 435.900 CW/SSB, 435.910 FM
Sapphire 16 Apr 15:30:46 15:33:46 15° 43° (NE) 15:36:45 437.095 MHz 1200 baud AX-25 AFSK
SO-67 16 Apr 15:39:25 15:40:24 11° 294° (WNW) 15:41:24 435.3500 MHz FM
HO-68 16 Apr 15:41:16 15:47:50 38° 98° (E) 15:54:22 435.675 MHz FM
RS-15 16 Apr 16:09:37 16:19:29 34° 321° (NW) 16:29:12 29.354 - 29.394 USB, Beacon 29.352 USB
PCSat 16 Apr 16:14:51 16:19:42 32° 53° (NE) 16:24:31 145.825 MHz
Oscar 11 16 Apr 16:19:10 16:22:59 29° 96° (E) 16:26:47 145.825 FM, Beacon 2401.500 USB
KITSAT 1 16 Apr 17:08:55 17:14:38 20° 36° (NE) 17:20:19 435.175 FM
Sapphire 16 Apr 17:12:32 17:17:59 87° 62° (ENE) 17:23:24 437.095 MHz 1200 baud AX-25 AFSK
HO-68 16 Apr 17:28:55 17:35:30 41° 295° (WNW) 17:42:05 435.675 MHz FM
PANSAT 16 Apr 17:31:37 17:33:53 15° 173° (S) 17:36:09 not established
FUNcube-1 16 Apr 17:34:17 17:38:30 64° 101° (E) 17:42:46 145.950 - 145.970 MHz USB
Saudisat 1A 16 Apr 17:55:32 17:59:45 44° 116° (ESE) 18:04:00 436.775 MHz
Oscar 11 16 Apr 17:55:35 17:59:02 23° 292° (WNW) 18:02:28 145.825 FM, Beacon 2401.500 USB
PCSat 16 Apr 17:58:12 18:03:06 35° 250° (WSW) 18:07:58 145.825 MHz
RS-15 16 Apr 18:30:03 18:36:39 17° 356° (N) 18:43:15 29.354 - 29.394 USB, Beacon 29.352 USB
Oscar 19 16 Apr 18:31:05 18:33:27 13° 61° (ENE) 18:35:49 437.125 CW, 437.150 USB
Oscar 16 16 Apr 18:37:47 18:40:58 17° 63° (ENE) 18:44:09 437.025 USB, Beacon 2401.1428
Sapphire 16 Apr 18:59:09 19:00:35 11° 258° (WSW) 19:02:01 437.095 MHz 1200 baud AX-25 AFSK
AO-Echo 16 Apr 19:01:49 19:03:02 11° 60° (ENE) 19:04:15 ?
KITSAT 1 16 Apr 19:03:21 19:11:30 75° 59° (ENE) 19:19:33 435.175 FM
Uribyol 2 16 Apr 19:06:41 19:09:52 17° 62° (ENE) 19:13:03 436.500 FM
PANSAT 16 Apr 19:11:07 19:13:27 15° 186° (S) 19:15:47 not established
FUNcube-1 16 Apr 19:13:15 19:14:24 11° 296° (WNW) 19:15:34 145.950 - 145.970 MHz USB
Saudisat 1A 16 Apr 19:36:06 19:39:33 22° 313° (NW) 19:43:02 436.775 MHz
AO-27 16 Apr 19:43:17 19:47:57 35° 69° (ENE) 19:52:38 436.795 MHz FM
ITAMSAT 1 16 Apr 19:54:39 19:59:32 44° 70° (ENE) 20:04:26 435.822 SSB
Oscar 19 16 Apr 20:06:59 20:12:06 76° 257° (WSW) 20:17:17 437.125 CW, 437.150 USB
TMSAT-1 16 Apr 20:09:14 20:11:43 14° 61° (ENE) 20:14:12 436.925 FM
Oscar 16 16 Apr 20:14:45 20:19:48 59° 259° (W) 20:24:54 437.025 USB, Beacon 2401.1428
AO-7 16 Apr 20:18:44 20:20:55 11° 45° (NE) 20:23:06 29.400 - 29.500 MHz
JAS-1B 16 Apr 20:24:35 20:29:00 16° 60° (ENE) 20:33:03 435.800 - 435.900 CW/SSB
AO-Echo 16 Apr 20:35:43 20:41:01 86° 76° (ENE) 20:46:13 ?
Uribyol 2 16 Apr 20:43:44 20:48:50 60° 259° (WSW) 20:53:57 436.500 FM
RS-15 16 Apr 20:45:32 20:54:28 27° 32° (NNE) 21:03:26 29.354 - 29.394 USB, Beacon 29.352 USB
Uosat F 16 Apr 20:54:43 20:56:57 13° 61° (ENE) 20:59:11 435.120 FM
Gurwin Techsat 1B 16 Apr 20:55:28 21:00:34 50° 72° (ENE) 21:05:42 435.225 FM
KITSAT 1 16 Apr 21:00:13 21:06:02 22° 257° (WSW) 21:11:50 435.175 FM
AO-27 16 Apr 21:23:09 21:27:29 27° 264° (W) 21:31:51 436.795 MHz FM
OPAL 16 Apr 21:32:02 21:37:03 46° 101° (ESE) 21:42:03 ?
SO-50 16 Apr 21:32:07 21:34:22 14° 108° (ESE) 21:36:37 436.795 FM
ITAMSAT 1 16 Apr 21:35:19 21:39:12 21° 266° (W) 21:43:06 435.822 SSB
TMSAT-1 16 Apr 21:45:39 21:50:56 78° 257° (WSW) 21:56:16 436.925 FM
AO-7 16 Apr 22:03:53 22:11:50 54° 65° (ENE) 22:19:47 29.400 - 29.500 MHz
JAS-1B 16 Apr 22:10:20 22:18:54 85° 74° (ENE) 22:26:01 435.800 - 435.900 CW/SSB
AO-Echo 16 Apr 22:19:24 22:20:20 10° 271° (W) 22:21:16 ?
Uosat F 16 Apr 22:30:03 22:35:05 76° 257° (WSW) 22:40:08 435.120 FM
ISS 16 Apr 22:36:19 22:39:34 53° 138° (SE) 22:42:51 145.800 FM
Gurwin Techsat 1B 16 Apr 22:37:07 22:40:48 19° 267° (W) 22:44:31 435.225 FM
RS-15 16 Apr 22:57:42 23:08:43 82° 58° (ENE) 23:20:01 29.354 - 29.394 USB, Beacon 29.352 USB
SO-50 16 Apr 23:10:00 23:14:25 59° 304° (NW) 23:18:52 436.795 FM
OPAL 16 Apr 23:11:40 23:15:36 22° 297° (WNW) 23:19:32 ?
AO-7 16 Apr 23:57:39 00:04:51 33° 263° (W) 00:12:06 29.400 - 29.500 MHz
JAS-2 16 Apr 23:57:47 00:00:46 15° 62° (ENE) 00:03:38 435.800 - 435.900 CW/SSB, 435.910 FM
JAS-1B 17 Apr 00:04:42 00:09:51 18° 267° (W) 00:14:33 435.800 - 435.900 CW/SSB
UOSAT-12 17 Apr 00:11:38 00:15:38 32° 113° (ESE) 00:19:44 437.025 FM, 437.400 FM
Hamsat 17 Apr 00:11:51 00:15:49 44° 73° (ENE) 00:19:50 145.90 MHz
ISS 17 Apr 00:13:49 00:16:31 22° 335° (NNW) 00:19:14 145.800 FM
SO-67 17 Apr 00:38:46 00:40:26 13° 67° (ENE) 00:42:05 435.3500 MHz FM
RS-15 17 Apr 01:11:40 01:19:47 25° 258° (WSW) 01:28:07 29.354 - 29.394 USB, Beacon 29.352 USB
JAS-2 17 Apr 01:39:15 01:45:22 76° 257° (WSW) 01:50:52 435.800 - 435.900 CW/SSB, 435.910 FM
STRAND 1 17 Apr 01:43:27 01:48:32 67° 102° (ESE) 01:53:35 ?
Hamsat 17 Apr 01:49:49 01:52:02 14° 269° (W) 01:54:17 145.90 MHz
UOSAT-12 17 Apr 01:51:48 01:55:47 29° 311° (NW) 01:59:50 437.025 FM, 437.400 FM
ISS 17 Apr 01:53:38 01:54:16 10° 355° (N) 01:54:55 145.800 FM
HO-68 17 Apr 02:09:37 02:15:16 26° 60° (ENE) 02:20:57 435.675 MHz FM
SO-67 17 Apr 02:10:05 02:13:16 33° 263° (W) 02:16:29 435.3500 MHz FM
Saudisat 1A 17 Apr 02:23:34 02:27:23 28° 49° (NE) 02:31:09 436.775 MHz
Oscar 11 17 Apr 03:13:53 03:17:07 21° 68° (ENE) 03:20:22 145.825 FM, Beacon 2401.500 USB
STRAND 1 17 Apr 03:24:22 03:27:09 15° 298° (WNW) 03:29:56 ?
ISS 17 Apr 03:30:23 03:32:13 14° 16° (NNE) 03:34:03 145.800 FM
HO-68 17 Apr 03:55:27 04:02:28 60° 258° (WSW) 04:09:32 435.675 MHz FM
MaSat-1 17 Apr 03:59:59 04:02:32 23° 111° (ESE) 04:04:49 437.345 MHz
Saudisat 1A 17 Apr 04:03:06 04:06:58 30° 246° (WSW) 04:10:47 436.775 MHz
FUNcube-1 17 Apr 04:30:04 04:34:06 44° 73° (ENE) 04:38:06 145.950 - 145.970 MHz USB
Oscar 11 17 Apr 04:49:16 04:53:07 32° 263° (W) 04:56:59 145.825 FM, Beacon 2401.500 USB
ISS 17 Apr 05:06:17 05:09:35 52° 34° (NE) 05:12:52 145.800 FM
MaSat-1 17 Apr 05:39:55 05:40:57 11° 302° (WNW) 05:41:56 437.345 MHz
SO-50 17 Apr 06:03:37 06:05:56 14° 41° (NE) 06:08:16 436.795 FM
FUNcube-1 17 Apr 06:08:31 06:10:45 14° 268° (W) 06:12:58 145.950 - 145.970 MHz USB
Sapphire 17 Apr 06:13:41 06:15:49 12° 102° (ESE) 06:17:58 437.095 MHz 1200 baud AX-25 AFSK
ISS 17 Apr 06:43:53 06:46:03 16° 230° (SW) 06:48:12 145.800 FM
